Overview Statistics Trail Chart Weather Telemetry Raw packets
 

This is the latest recevied weather packets stored in our database for station/object WX0ABE-13. If no packets are shown the sender has not sent any weather packets the latest 10 day(s).

<< 37 38 39 40 41 42 43 >>
Time Temp. Humidity Pressure Rain* Wind** Luminosity Snow
1788095742 16.11° C 83% 1016.3 hPa 0 mm - 58 W/m² -
1788095437 15.56° C 84% 1016.4 hPa 0 mm - 54 W/m² -
1788095132 15.56° C 84% 1016.2 hPa 0 mm - 53 W/m² -
1788094828 15.56° C 84% 1016.3 hPa 0 mm - 46 W/m² -
1788094522 15.56° C 85% 1016.1 hPa 0 mm - 40 W/m² -
1788094221 15° C 85% 1015.8 hPa 0 mm - 29 W/m² -
1788093920 15° C 86% 1015.8 hPa 0 mm - 16 W/m² -
1788093616 15° C 87% 1015.9 hPa 0 mm - 12 W/m² -
1788093313 15° C 86% 1015.8 hPa 0 mm - 8 W/m² -
1788093008 15° C 86% 1015.9 hPa 0 mm - 5 W/m² -
1788092704 15° C 86% 1015.8 hPa 0 mm - 4 W/m² -
1788092400 15° C 86% 1015.9 hPa 0 mm - 2 W/m² -
1788092096 15° C 86% 1015.9 hPa 0 mm - 1 W/m² -
1788091795 15° C 86% 1015.8 hPa 0 mm - 1 W/m² -
1788091490 15° C 86% 1015.9 hPa 0 mm - 0 W/m² -
1788091187 15° C 86% 1015.9 hPa 0 mm - 0 W/m² -
1788090883 15° C 86% 1015.8 hPa 0 mm - 0 W/m² -
1788090578 15° C 86% 1015.9 hPa 0 mm - 0 W/m² -
1788090275 15° C 85% 1015.7 hPa 0 mm - 0 W/m² -
1788089980 15° C 86% 1015.7 hPa 0 mm - 0 W/m² -
1788089670 15° C 86% 1015.7 hPa 0 mm - 0 W/m² -
1788089365 15° C 86% 1015.7 hPa 0 mm - 0 W/m² -
1788089061 15° C 86% 1015.6 hPa 0 mm - 0 W/m² -
1788088757 15° C 86% 1015.7 hPa 0 mm - 0 W/m² -
1788088453 15° C 86% 1015.7 hPa 0 mm - 0 W/m² -

* Rain latest hour (hover to see other rain measurements)
** Current wind speed in m/s (hover to see current wind gust speed)